AE5HO Weather Reports


Display with metric or nautical units.
time (UTC)temp
F
wind
direction
speed
MPH
gust
MPH
rain 1hr
in
rain 24hr
in
rain mn
in
humidity
%
barometer
mb
20260905135148 83 188 0.0 1.0 0.00 0.00 0.00 78 1015.3
20260905134647 82 180 0.0 1.0 0.00 0.00 0.00 78 1015.3
20260905134146 82 246 0.0 1.0 0.00 0.00 0.00 78 1015.2
20260905133642 82 286 0.0 2.0 0.00 0.00 0.00 78 1015.1
20260905133142 82 180 0.0 0.0 0.00 0.00 0.00 79 1015.2
20260905132641 81 294 0.0 3.0 0.00 0.00 0.00 79 1015.2
20260905132136 81 186 0.0 1.0 0.00 0.00 0.00 80 1015.1
20260905131631 81 187 0.0 0.0 0.00 0.00 0.00 81 1015.0
20260905131127 80 246 0.0 0.0 0.00 0.00 0.00 83 1015.0
20260905130627 80 180 0.0 0.0 0.00 0.00 0.00 84 1014.9
20260905130127 79 180 0.0 0.0 0.00 0.00 0.00 85 1014.7
20260905125626 79 180 0.0 0.0 0.00 0.00 0.00 85 1014.8
20260905125122 78 195 0.0 0.0 0.00 0.00 0.00 85 1014.9
20260905124619 78 195 0.0 0.0 0.00 0.00 0.00 85 1014.6
20260905124114 78 180 0.0 0.0 0.00 0.00 0.00 86 1014.9
20260905123609 78 180 0.0 0.0 0.00 0.00 0.00 86 1014.5
20260905123107 77 180 0.0 0.0 0.00 0.00 0.00 86 1014.4
20260905122607 77 195 0.0 0.0 0.00 0.00 0.00 86 1014.5
20260905122106 77 195 0.0 0.0 0.00 0.00 0.00 85 1014.4
20260905121601 77 195 0.0 0.0 0.00 0.00 0.00 85 1014.3
20260905121057 77 195 0.0 0.0 0.00 0.00 0.00 85 1014.2
20260905120555 77 195 0.0 0.0 0.00 0.00 0.00 85 1014.3
20260905120051 78 195 0.0 0.0 0.00 0.00 0.00 85 1014.3
20260905115550 78 195 0.0 0.0 0.00 0.00 0.00 85 1014.4
20260905115045 78 195 0.0 0.0 0.00 0.00 0.00 85 1014.3
20260905114544 78 195 0.0 0.0 0.00 0.00 0.00 84 1014.3
20260905114043 78 195 0.0 1.0 0.00 0.00 0.00 84 1014.2
20260905113538 78 180 0.0 0.0 0.00 0.00 0.00 84 1014.1
20260905113033 78 180 0.0 0.0 0.00 0.00 0.00 84 1014.1
20260905112529 78 180 0.0 0.0 0.00 0.00 0.00 84 1014.1
20260905112025 78 180 0.0 0.0 0.00 0.00 0.00 84 1014.0
20260905111525 79 180 0.0 1.0 0.00 0.00 0.00 83 1014.2
20260905111024 78 180 0.0 0.0 0.00 0.00 0.00 83 1014.0
20260905110523 79 180 0.0 0.0 0.00 0.00 0.00 82 1014.3
20260905110019 79 200 0.0 0.0 0.00 0.00 0.00 82 1014.4
20260905105513 79 200 0.0 0.0 0.00 0.00 0.00 82 1014.2
20260905105012 79 165 0.0 1.0 0.00 0.00 0.00 82 1014.4
20260905104509 79 180 0.0 1.0 0.00 0.00 0.00 82 1014.5
20260905104008 79 180 0.0 0.0 0.00 0.00 0.00 81 1014.5
20260905103503 79 180 0.0 0.0 0.00 0.00 0.00 81 1014.4
20260905102959 79 180 0.0 0.0 0.00 0.00 0.00 81 1014.4
20260905102455 80 180 0.0 0.0 0.00 0.00 0.00 80 1014.4
20260905101950 80 180 0.0 1.0 0.00 0.00 0.00 80 1014.5
20260905101449 80 188 0.0 0.0 0.00 0.00 0.00 79 1014.4
20260905100948 80 188 0.0 0.0 0.00 0.00 0.00 79 1014.6
20260905100444 80 188 0.0 0.0 0.00 0.00 0.00 78 1014.4
20260905095943 81 203 0.0 1.0 0.00 0.00 0.00 78 1014.5
20260905095443 81 195 0.0 1.0 0.00 0.00 0.00 78 1014.3
20260905094939 81 188 0.0 1.0 0.00 0.00 0.00 78 1014.3
20260905094434 81 275 2.0 2.0 0.00 0.00 0.00 78 1014.0
20260905093933 80 254 0.0 1.0 0.00 0.00 0.00 79 1014.1
20260905093428 80 195 0.0 1.0 0.00 0.00 0.00 80 1014.1
20260905092924 80 180 0.0 0.0 0.00 0.00 0.00 80 1014.0
20260905092419 80 188 0.0 0.0 0.00 0.00 0.00 79 1013.9
20260905091914 81 246 0.0 0.0 0.00 0.00 0.00 79 1014.0
20260905091409 81 246 0.0 0.0 0.00 0.00 0.00 78 1013.7
20260905090908 81 246 0.0 0.0 0.00 0.00 0.00 77 1014.0
20260905090404 81 246 0.0 0.0 0.00 0.00 0.00 77 1014.0
20260905085903 82 194 0.0 1.0 0.00 0.00 0.00 77 1013.8
20260905085403 82 188 0.0 1.0 0.00 0.00 0.00 76 1014.0
20260905084859 82 180 0.0 0.0 0.00 0.00 0.00 76 1013.9
20260905084357 82 246 0.0 0.0 0.00 0.00 0.00 75 1014.1
20260905083853 82 180 0.0 1.0 0.00 0.00 0.00 75 1014.1
20260905083348 82 173 0.0 1.0 0.00 0.00 0.00 75 1014.0
20260905082844 82 188 0.0 1.0 0.00 0.00 0.00 75 1013.8
20260905082340 83 262 0.0 0.0 0.00 0.00 0.00 74 1014.0
20260905081835 83 261 0.0 0.0 0.00 0.00 0.00 74 1014.0
20260905081330 83 261 0.0 0.0 0.00 0.00 0.00 73 1013.8
20260905080829 83 8 0.0 1.0 0.00 0.00 0.00 73 1014.0
20260905080324 84 255 0.0 3.0 0.00 0.00 0.00 72 1013.9
20260905075822 84 235 2.0 3.0 0.00 0.00 0.00 71 1013.8
20260905075322 84 246 0.0 2.0 0.00 0.00 0.00 72 1014.0
20260905074821 84 266 3.0 3.0 0.00 0.00 0.00 72 1013.6
20260905074317 84 281 2.0 2.0 0.00 0.00 0.00 71 1013.9
20260905073812 84 234 1.0 2.0 0.00 0.00 0.00 71 1013.7
20260905073308 84 262 0.0 1.0 0.00 0.00 0.00 71 1013.9
20260905072808 84 270 0.0 2.0 0.00 0.00 0.00 71 1013.8
20260905072305 84 246 0.0 0.0 0.00 0.00 0.00 71 1013.9
20260905071759 84 255 1.0 4.0 0.00 0.00 0.00 69 1014.0
20260905071255 84 255 0.0 2.0 0.00 0.00 0.00 70 1014.1
20260905070749 84 203 0.0 2.0 0.00 0.00 0.00 70 1014.1
20260905070247 84 264 2.0 3.0 0.00 0.00 0.00 69 1014.1
20260905065745 84 279 0.0 1.0 0.00 0.00 0.00 71 1014.1
20260905065244 85 180 0.0 2.0 0.00 0.00 0.00 70 1013.8
20260905064740 85 261 0.0 2.0 0.00 0.00 0.00 69 1014.0
20260905064235 84 185 2.0 2.0 0.00 0.00 0.00 71 1014.1
20260905063733 85 237 0.0 2.0 0.00 0.00 0.00 69 1014.1
20260905063230 85 83 0.0 1.0 0.00 0.00 0.00 70 1013.9
20260905062726 85 200 0.0 2.0 0.00 0.00 0.00 70 1014.1
20260905062226 84 196 0.0 0.0 0.00 0.00 0.00 71 1014.2
20260905061725 85 180 0.0 1.0 0.00 0.00 0.00 72 1014.2
20260905061221 85 173 0.0 1.0 0.00 0.00 0.00 70 1014.0
20260905060720 85 186 0.0 2.0 0.00 0.00 0.00 69 1014.2
20260905060217 86 166 0.0 2.0 0.00 0.00 0.00 67 1014.2
20260905055715 86 252 0.0 3.0 0.00 0.00 0.00 66 1014.0
20260905055211 86 180 0.0 0.0 0.00 0.00 0.00 66 1013.9
20260905054706 86 90 0.0 0.0 0.00 0.00 0.00 66 1014.0
20260905054202 86 253 0.0 2.0 0.00 0.00 0.00 65 1014.0
20260905053701 86 90 0.0 0.0 0.00 0.00 0.00 66 1013.7
20260905053157 87 254 0.0 1.0 0.00 0.00 0.00 65 1014.0
20260905052656 87 180 0.0 2.0 0.00 0.00 0.00 65 1013.9
20260905052151 87 303 0.0 2.0 0.00 0.00 0.00 65 1013.8
20260905051646 87 180 0.0 1.0 0.00 0.00 0.00 65 1013.8
20260905051143 87 270 0.0 2.0 0.00 0.00 0.00 64 1013.8
20260905050639 87 82 0.0 1.0 0.00 0.00 0.00 64 1013.8
20260905050136 87 279 0.0 2.0 0.00 0.00 0.00 64 1013.8
20260905045635 87 196 0.0 2.0 0.00 0.00 0.00 63 1013.9
20260905045131 88 180 0.0 2.0 0.00 0.00 0.00 63 1014.0
20260905044630 88 8 0.0 1.0 0.00 0.00 0.00 63 1013.6
20260905044125 88 70 0.0 2.0 0.00 0.00 0.00 62 1013.8
20260905043624 88 175 2.0 2.0 0.00 0.00 0.00 62 1013.7
20260905043120 88 192 0.0 2.0 0.00 0.00 0.00 62 1013.6
20260905042618 88 173 1.0 2.0 0.00 0.00 0.00 61 1013.5
20260905042114 89 291 0.0 2.0 0.00 0.00 0.00 61 1013.8
20260905041609 89 279 0.0 2.0 0.00 0.00 0.00 60 1013.6
20260905041105 89 24 0.0 3.0 0.00 0.00 0.00 60 1013.8
20260905040605 89 303 0.0 5.0 0.00 0.00 0.00 60 1013.7
20260905040103 89 324 0.0 3.0 0.00 0.00 0.00 60 1013.8
20260905035558 89 283 1.0 2.0 0.00 0.00 0.00 59 1013.8
20260905035055 90 192 1.0 4.0 0.00 0.00 0.00 58 1013.8
20260905034551 90 264 0.0 3.0 0.00 0.00 0.00 57 1014.0
20260905034051 90 60 2.0 2.0 0.00 0.00 0.00 56 1013.9
20260905033551 90 300 0.0 2.0 0.00 0.00 0.00 56 1014.0
20260905033047 90 84 0.0 2.0 0.00 0.00 0.00 55 1013.7
20260905032546 90 353 0.0 1.0 0.00 0.00 0.00 55 1013.7
20260905032041 90 189 2.0 3.0 0.00 0.00 0.00 54 1013.4
20260905031537 90 194 0.0 2.0 0.00 0.00 0.00 54 1013.4
20260905031037 90 90 0.0 2.0 0.00 0.00 0.00 53 1013.4
20260905030532 90 180 0.0 2.0 0.00 0.00 0.00 54 1013.4
20260905030032 90 198 0.0 2.0 0.00 0.00 0.00 53 1013.7
20260905025527 90 209 0.0 2.0 0.00 0.00 0.00 53 1013.5
20260905025024 91 192 0.0 3.0 0.00 0.00 0.00 53 1013.4
20260905024518 91 195 0.0 3.0 0.00 0.00 0.00 52 1013.4
20260905024014 91 263 0.0 1.0 0.00 0.00 0.00 53 1013.5
20260905023509 91 176 2.0 3.0 0.00 0.00 0.00 52 1013.1
20260905023009 91 194 0.0 3.0 0.00 0.00 0.00 52 1013.0
20260905022503 91 174 0.0 3.0 0.00 0.00 0.00 52 1012.7
20260905021959 91 180 0.0 2.0 0.00 0.00 0.00 53 1012.7
20260905021458 91 180 0.0 2.0 0.00 0.00 0.00 52 1012.6
20260905020954 91 203 0.0 3.0 0.00 0.00 0.00 52 1012.6
20260905020453 91 180 0.0 2.0 0.00 0.00 0.00 52 1012.7
20260905015953 91 198 0.0 2.0 0.00 0.00 0.00 52 1012.5
20260905015452 92 180 0.0 3.0 0.00 0.00 0.00 52 1012.4
20260905014951 92 185 2.0 2.0 0.00 0.00 0.00 51 1012.6
20260905014447 92 175 2.0 3.0 0.00 0.00 0.00 51 1012.5
20260905013942 92 177 0.0 2.0 0.00 0.00 0.00 51 1012.3
20260905013438 92 169 0.0 3.0 0.00 0.00 0.00 51 1012.3
20260905012933 92 161 0.0 3.0 0.00 0.00 0.00 52 1012.2
20260905012428 92 60 0.0 3.0 0.00 0.00 0.00 52 1012.2
20260905011925 92 180 2.0 3.0 0.00 0.00 0.00 52 1012.2
20260905011420 92 212 0.0 4.0 0.00 0.00 0.00 52 1012.3
20260905010916 92 185 0.0 2.0 0.00 0.00 0.00 52 1012.0
20260905010411 93 241 0.0 2.0 0.00 0.00 0.00 52 1012.0
20260905005907 93 168 2.0 2.0 0.00 0.00 0.00 52 1011.8
20260905005403 93 209 1.0 3.0 0.00 0.00 0.00 52 1011.8
20260905004857 93 180 0.0 2.0 0.00 0.00 0.00 52 1011.7
20260905004357 94 180 2.0 2.0 0.00 0.00 0.00 51 1011.9
20260905003853 94 194 0.0 4.0 0.00 0.00 0.00 51 1011.7
20260905003349 94 210 2.0 3.0 0.00 0.00 0.00 51 1011.5
20260905002844 94 66 0.0 2.0 0.00 0.00 0.00 51 1011.5
20260905002344 95 180 0.0 3.0 0.00 0.00 0.00 51 1011.6
20260905001839 95 200 0.0 2.0 0.00 0.00 0.00 50 1011.5
20260905001339 95 172 1.0 2.0 0.00 0.00 0.00 50 1011.4
20260905000834 96 180 0.0 3.0 0.00 0.00 0.00 49 1011.3
20260905000329 96 187 0.0 2.0 0.00 0.00 0.00 49 1011.4
20260904235825 96 180 2.0 3.0 0.00 0.00 0.00 49 1011.4
20260904235320 96 180 1.0 2.0 0.00 0.00 0.00 49 1011.4
20260904234815 96 200 1.0 2.0 0.00 0.00 0.00 49 1011.6
20260904234315 96 180 0.0 0.0 0.00 0.00 0.00 49 1011.4
20260904233811 96 81 0.0 2.0 0.00 0.00 0.00 48 1011.5
20260904233306 96 102 0.0 2.0 0.00 0.00 0.00 47 1011.2
20260904232803 97 194 0.0 2.0 0.00 0.00 0.00 47 1011.6
20260904232259 96 180 2.0 3.0 0.00 0.00 0.00 47 1011.5
20260904231754 96 180 0.0 3.0 0.00 0.00 0.00 47 1011.5
20260904231249 96 174 1.0 2.0 0.00 0.00 0.00 47 1011.5
20260904230745 96 180 0.0 2.0 0.00 0.00 0.00 47 1011.4
20260904230238 96 188 0.0 1.0 0.00 0.00 0.00 47 1011.4
20260904225738 97 74 0.0 2.0 0.00 0.00 0.00 46 1011.5
20260904225232 97 180 0.0 0.0 0.00 0.00 0.00 47 1011.5
20260904224731 96 192 0.0 4.0 0.00 0.00 0.00 46 1011.5
20260904224227 97 188 1.0 2.0 0.00 0.00 0.00 46 1011.4
20260904223726 97 166 1.0 3.0 0.00 0.00 0.00 46 1011.7
20260904223221 97 203 0.0 2.0 0.00 0.00 0.00 46 1011.5
20260904222717 97 170 0.0 3.0 0.00 0.00 0.00 46 1011.7
20260904222212 98 173 0.0 3.0 0.00 0.00 0.00 44 1011.5
20260904221711 98 206 0.0 3.0 0.00 0.00 0.00 44 1011.5
20260904221207 99 180 0.0 2.0 0.00 0.00 0.00 43 1011.5
20260904220701 98 32 0.0 3.0 0.00 0.00 0.00 43 1011.8
20260904220157 97 200 0.0 2.0 0.00 0.00 0.00 45 1011.7
20260904215656 97 190 2.0 2.0 0.00 0.00 0.00 45 1011.7
20260904215152 98 26 0.0 2.0 0.00 0.00 0.00 45 1011.8
20260904214647 98 180 0.0 3.0 0.00 0.00 0.00 44 1011.9
20260904214143 98 32 2.0 2.0 0.00 0.00 0.00 45 1012.1
20260904213640 98 176 4.0 4.0 0.00 0.00 0.00 44 1011.8
20260904213137 98 180 1.0 3.0 0.00 0.00 0.00 45 1011.9
20260904212637 98 185 0.0 3.0 0.00 0.00 0.00 45 1011.8
20260904212132 99 180 0.0 3.0 0.00 0.00 0.00 46 1012.0
20260904211632 99 180 0.0 3.0 0.00 0.00 0.00 46 1012.0
20260904211128 98 265 0.0 3.0 0.00 0.00 0.00 46 1012.2
20260904210627 99 180 0.0 4.0 0.00 0.00 0.00 46 1012.3
20260904210123 99 203 0.0 4.0 0.00 0.00 0.00 45 1012.2
20260904205619 99 265 2.0 3.0 0.00 0.00 0.00 46 1012.3
20260904205115 99 210 0.0 3.0 0.00 0.00 0.00 46 1012.3
20260904204610 98 312 0.0 3.0 0.00 0.00 0.00 46 1012.5
20260904204106 98 180 0.0 4.0 0.00 0.00 0.00 46 1012.5
20260904203602 99 199 3.0 3.0 0.00 0.00 0.00 46 1012.7
20260904203058 99 270 0.0 2.0 0.00 0.00 0.00 45 1012.5
20260904202554 99 270 0.0 3.0 0.00 0.00 0.00 47 1012.4
20260904202051 98 270 1.0 3.0 0.00 0.00 0.00 47 1012.7
20260904201550 98 78 0.0 3.0 0.00 0.00 0.00 47 1012.7
20260904201046 98 126 0.0 3.0 0.00 0.00 0.00 47 1012.9
20260904200544 98 264 2.0 3.0 0.00 0.00 0.00 47 1012.9
20260904200040 98 180 2.0 4.0 0.00 0.00 0.00 48 1013.1
20260904195538 97 240 0.0 3.0 0.00 0.00 0.00 48 1013.3
20260904195038 97 163 2.0 5.0 0.00 0.00 0.00 48 1012.9
20260904194532 97 132 2.0 3.0 0.00 0.00 0.00 49 1013.3
20260904194028 97 5 0.0 3.0 0.00 0.00 0.00 50 1013.4
20260904193528 96 169 2.0 4.0 0.00 0.00 0.00 50 1013.5
20260904193025 96 201 0.0 3.0 0.00 0.00 0.00 52 1013.4
20260904192523 96 270 1.0 6.0 0.00 0.00 0.00 52 1013.5
20260904192020 96 270 1.0 3.0 0.00 0.00 0.00 51 1013.5
20260904191516 96 0 0.0 3.0 0.00 0.00 0.00 53 1013.8
20260904191012 96 187 3.0 7.0 0.00 0.00 0.00 51 1013.7
20260904190508 96 263 0.0 3.0 0.00 0.00 0.00 52 1013.7
20260904190004 95 184 2.0 5.0 0.00 0.00 0.00 54 1013.9
20260904185500 96 194 1.0 4.0 0.00 0.00 0.00 52 1014.0
20260904184955 96 249 1.0 4.0 0.00 0.00 0.00 55 1013.9
20260904184454 95 180 2.0 3.0 0.00 0.00 0.00 54 1014.2
20260904183950 94 293 0.0 3.0 0.00 0.00 0.00 57 1014.3
20260904183445 95 203 0.0 3.0 0.00 0.00 0.00 56 1014.3
20260904182940 95 176 2.0 4.0 0.00 0.00 0.00 57 1014.2
20260904182436 95 147 2.0 4.0 0.00 0.00 0.00 58 1014.3
20260904181930 95 270 1.0 3.0 0.00 0.00 0.00 58 1014.4
20260904181426 95 297 2.0 5.0 0.00 0.00 0.00 56 1014.3
20260904180920 95 165 0.0 2.0 0.00 0.00 0.00 57 1014.4
20260904180421 94 210 0.0 2.0 0.00 0.00 0.00 59 1014.6
20260904175921 94 169 0.0 2.0 0.00 0.00 0.00 57 1014.8
20260904175420 94 258 0.0 5.0 0.00 0.00 0.00 57 1014.8
20260904174920 93 186 0.0 3.0 0.00 0.00 0.00 59 1014.7
20260904174415 93 352 1.0 4.0 0.00 0.00 0.00 58 1014.7
20260904173911 93 200 0.0 2.0 0.00 0.00 0.00 58 1014.9
20260904173406 92 209 1.0 1.0 0.00 0.00 0.00 59 1014.9
20260904172902 91 212 2.0 4.0 0.00 0.00 0.00 58 1015.3
20260904172402 91 201 0.0 2.0 0.00 0.00 0.00 59 1015.1
20260904171857 91 270 0.0 4.0 0.00 0.00 0.00 60 1015.1
20260904171352 90 270 1.0 5.0 0.00 0.00 0.00 59 1015.4
20260904170848 91 265 2.0 2.0 0.00 0.00 0.00 60 1015.1
20260904170343 91 246 1.0 2.0 0.00 0.00 0.00 61 1015.4
20260904165839 90 259 3.0 3.0 0.00 0.00 0.00 61 1015.5
20260904165337 89 270 2.0 5.0 0.00 0.00 0.00 62 1015.4
20260904164833 90 203 2.0 3.0 0.00 0.00 0.00 63 1015.1
20260904164332 90 252 3.0 3.0 0.00 0.00 0.00 62 1015.5
20260904163829 89 172 0.0 2.0 0.00 0.00 0.00 62 1015.5
20260904163329 89 72 2.0 2.0 0.00 0.00 0.00 62 1015.5
20260904162828 90 250 2.0 2.0 0.00 0.00 0.00 62 1015.5
20260904162324 90 180 0.0 2.0 0.00 0.00 0.00 63 1015.7
20260904161819 90 270 2.0 2.0 0.00 0.00 0.00 63 1015.6
20260904161319 90 257 1.0 4.0 0.00 0.00 0.00 63 1015.3
20260904160814 89 187 3.0 3.0 0.00 0.00 0.00 66 1015.6
20260904160309 89 105 1.0 2.0 0.00 0.00 0.00 65 1015.5
20260904155809 88 270 2.0 3.0 0.00 0.00 0.00 66 1015.5
20260904155306 88 307 0.0 3.0 0.00 0.00 0.00 66 1015.5
20260904154802 87 260 2.0 3.0 0.00 0.00 0.00 68 1015.4
20260904154257 87 256 3.0 4.0 0.00 0.00 0.00 69 1015.4
20260904153753 86 151 0.0 3.0 0.00 0.00 0.00 71 1015.4
20260904153249 86 279 1.0 2.0 0.00 0.00 0.00 73 1015.3
20260904152745 86 96 0.0 3.0 0.00 0.00 0.00 71 1015.3
20260904152240 87 286 1.0 2.0 0.00 0.00 0.00 72 1015.3
20260904151734 87 191 2.0 2.0 0.00 0.00 0.00 73 1015.4
20260904151233 86 221 0.0 2.0 0.00 0.00 0.00 75 1015.2
20260904150730 86 246 3.0 4.0 0.00 0.00 0.00 76 1015.3
20260904150224 85 270 0.0 3.0 0.00 0.00 0.00 77 1015.4
20260904145723 84 216 2.0 2.0 0.00 0.00 0.00 80 1015.5
20260904145218 84 286 0.0 3.0 0.00 0.00 0.00 80 1015.5
20260904144713 85 195 1.0 2.0 0.00 0.00 0.00 80 1015.4
20260904144209 84 180 0.0 4.0 0.00 0.00 0.00 80 1015.2
20260904143705 84 73 2.0 2.0 0.00 0.00 0.00 82 1015.4
20260904143201 83 68 3.0 3.0 0.00 0.00 0.00 83 1015.4
20260904142658 82 180 0.0 2.0 0.00 0.00 0.00 85 1015.4
20260904142153 81 251 2.0 2.0 0.00 0.00 0.00 85 1015.4
20260904141653 81 90 0.0 2.0 0.00 0.00 0.00 85 1015.3
20260904141149 81 8 0.0 1.0 0.00 0.00 0.00 85 1015.4
20260904140644 81 180 1.0 2.0 0.00 0.00 0.00 85 1015.5
20260904140139 81 188 0.0 3.0 0.00 0.00 0.00 85 1015.5
20260904135638 80 85 0.0 2.0 0.00 0.00 0.00 86 1015.3